www.pogodaiklimat.ru

Погода и климат >> Архив погоды >> Россия >> Ленинградская область >> Ефимовская


ПОГОДА в Ефимовской

  • Прогноз погоды в Ефимовской
  • Монитор погоды в Ефимовской

АРХИВ ПОГОДЫ в Ефимовской

Время (UTC), дата Ветер
(напр.,м/с)
 
Видим.   Явления Облачность Т
(С)
Тd
(С)
f
(%)
Тe
(С)
Тes
(С)
Комфортность P
(гПа)
Po
(гПа)
Тmin
(С)
Tmax
(С)
R
(мм)
R24
(мм)
S
(см)
18 12.06 С 2 20 км ясно +11.0 +1.2 51 +10 +10 1026.9 1005.6 +16.6
21 12.06 СВ 1 н/о н/о +6.1 +1.5 72
00 13.06 В 2 н/о н/о +4.4 +1.6 82
03 13.06 В 1 н/о н/о +6.0 +2.2 77 +3.4
06 13.06 ЮВ 4 20 км ясно +11.7 +1.6 50 +10 +15 1030.1 1008.8 +3.4
09 13.06 ЮВ 4 н/о н/о +15.1 +1.9 41
12 13.06 Ю 2 н/о н/о +17.8 +2.0 35
15 13.06 Ю 2 н/о н/о +16.6 +3.8 42
18 13.06 ЮВ 1 20 км 9/0
[Ac trans Cc]
+14.5 +6.2 57 +15 +15 1023.7 1002.7 +18.3
21 13.06 ЮВ 2 н/о н/о +11.7 +5.5 66
00 14.06 ЮВ 2 н/о н/о +11.3 +5.7 68
03 14.06 Ю 1 н/о н/о +10.6 +7.9 83 +10.5 0.2
06 14.06 В 1 4000 м слаб. дождь 10/10 330 м
[Frnb Ns]
+9.9 +9.0 94 +9 +9 1016.8 995.6 +9.8 3
09 14.06 В 3 н/о н/о +9.7 +8.6 93
12 14.06 В 2 н/о н/о +11.1 +9.8 92
15 14.06 Ю 2 н/о н/о +13.4 +9.3 76 4
18 14.06 Ю 1 20 км 3/0
[Ci fib]
+12.5 +9.4 81 +13 +13 1017.0 996.1 +14.1 2
21 14.06 штиль 0 н/о н/о +7.2 +7.1 99
00 15.06 В 1 н/о н/о +7.5 +7.4 99
03 15.06 ЮВ 2 н/о н/о +9.3 +9.2 99 +6.9 2
06 15.06 Ю 2 20 км 10/10 420 м
[St]
+10.5 +9.6 94 +9 +9 1015.3 994.2 +6.9 2
09 15.06 ЮВ 2 н/о н/о +10.9 +10.6 98
12 15.06 ЮВ 1 н/о н/о +12.0 +11.4 96
15 15.06 штиль 0 н/о н/о +12.4 +11.8 96 0.8
18 15.06 С 1 4000 м слаб. дождь 10/10 270 м
[Frnb Ns]
+12.3 +12.0 98 +12 +12 1014.6 993.7 +12.6 2
21 15.06 СЗ 1 н/о н/о +11.5 +11.1 97
00 16.06 штиль 0 н/о н/о +8.8 +8.6 99
03 16.06 З 1 н/о н/о +10.4 +10.3 99 +8.1 1
06 16.06 СЗ 1 20 км 9/9 600 м
[Sc diur, vesp]
+13.6 +10.5 82 +14 +15 1015.7 994.8 +8.1 0.3
09 16.06 З 3 н/о н/о +18.9 +11.8 63
12 16.06 З 2 н/о н/о +19.4 +12.1 63
15 16.06 З 3 н/о н/о +20.0 +10.6 55
18 16.06 штиль 0 20 км 3/0
[Ci sp]
+16.3 +12.6 79 +16 +16 1013.2 992.6 +21.6
21 16.06 штиль 0 н/о н/о +10.7 +10.4 98
00 17.06 штиль 0 н/о н/о +7.4 +7.3 99
03 17.06 штиль 0 н/о н/о +13.4 +13.2 99 +6.8
06 17.06 З 1 20 км 3/0
[Ac trans]
+19.4 +12.4 64 +22 +30 комфорт 1012.0 991.6 +6.8
09 17.06 З 2 н/о н/о +23.2 +9.7 42
12 17.06 СЗ 2 н/о н/о +25.0 +8.9 36
15 17.06 З 2 н/о н/о +23.5 +11.1 46
18 17.06 штиль 0 20 км 9/0
[Ac trans Ci fib]
+19.5 +13.9 70 +25.7
21 17.06 штиль 0 н/о н/о +15.7 +14.8 94
00 18.06 штиль 0 н/о н/о +12.6 +12.4 99
03 18.06 З 3 н/о н/о +15.6 +12.3 81 +11.9
06 18.06 СЗ 2 4000 м слаб. дождь 10/10 360 м
[Frnb Ns]
+15.0 +13.5 91 +15 +15 1012.1 991.4 +11.9 0.4
09 18.06 З 3
{10}
н/о н/о +21.0 +14.0 64
12 18.06 СЗ 3 н/о н/о +22.4 +13.2 56
15 18.06 З 4
{10}
н/о н/о +23.6 +8.0 37 0.4
18 18.06 З 1 20 км ясно +20.7 +10.4 52 +24 +24 комфорт 1012.2 991.9 +24.6 0.0
21 18.06 З 1 н/о н/о +16.0 +10.4 69
00 19.06 З 1 н/о н/о +12.8 +8.8 77
03 19.06 З 1 н/о н/о +15.6 +10.2 70 +10.9
06 19.06 З 2 20 км ясно +19.9 +12.4 62 +22 +30 комфорт 1014.7 994.3 +10.9
09 19.06 З 3 н/о н/о +24.5 +11.6 44
12 19.06 З 4 н/о н/о +25.3 +9.9 38

 

Местоположение метеостанции Ефимовская (Ленинградская область, Россия): широта 59.50 долгота 34.70 высота над уровнем моря 176 м.

В архиве по умолчанию представлена погода в Ефимовской за последнюю неделю. Архивные данные за месяц целиком и за предыдущие месяцы, начиная с января 2011 года, Вы можете получить, выбрав интересующий диапазон дат из раскрывающегося списка и нажав кнопку "Ввод!".


*Определитесь, кто Вы:
робот инопланетянин человек

Внимание! Время в таблицах - всемирное. Для получения местного времени необходимо прибавить поправку, которая равна 3 ч.

Смотрите также архив погоды в соседних городах и на ближайших метеорологических станциях:

Погода в Шугозере (Ленинградская область, Россия) (62 км)
Погода в Тихвине (Ленинградская область, Россия) (67 км)
Погода в Бабаево (Вологодская область, Россия) (70 км)
Погода в Устюжне (Вологодская область, Россия) (122 км)
Погода в Винницах (Ленинградская область, Россия) (126 км)
Погода в Боровичах (Новгородская область, Россия) (129 км)
Погода в Окуловке (Новгородская область, Россия) (149 км)
Погода в Новой Ладоге (Ленинградская область, Россия) (150 км)
Погода в Лодейном Поле (Ленинградская область, Россия) (150 км)
Погода в Киришах (Ленинградская область, Россия) (151 км)

Пояснения к столбцам:

Ветер - указаны скорость ветра в м/с - средняя за 10 мин, порывы в срок и между сроками (в фигурных скобках) и направление, откуда дует ветер: С - северный, СВ - северо-восточный, В - восточный, ЮВ - юго-восточный, Ю - южный, ЮЗ - юго-западный, З - западный, СЗ - северо-западный.
Видимость - горизонтальная дальность видимости в метрах или километрах. При видимости от 1 до 10 км при отсутствии осадков обычно наблюдается дымка, при ухудшении видимости до 1 км и менее - туман. В сухую погоду видимость может ухудшаться дымом, пылью или мглою.
Явления - указаны атмосферные явления, наблюдавшиеся в срок или в последний час перед сроком; фигурными скобками обозначены явления, наблюдавшиеся между сроками (за 1-3 часа до срока); квадратными скобками обозначены град или гололедные отложения с указанием их диаметра в мм.
Облачность - указаны через наклонную черту общая и нижняя облачность в баллах и высота нижней границы облаков в метрах; квадратными скобками обозначены формы облаков: Ci - перистые, Cs - перисто-слоистые, Cc - перисто-кучевые, Ac - высококучевые, As - высокослоистые, Sc - слоисто-кучевые, Ns - слоисто-дождевые, Cu - кучевые, Cb - кучево-дождевые. Подробнее классификацию облаков см. в Атласе облаков (PDF).
T - Температура воздуха - температура, измеренная на высоте 2 м над землей.
Td - Температура точки росы - температура, при понижении до которой содержащийся в воздухе водяной пар достигнет насыщения.
f - Относительная влажность воздуха - влажноcть воздуха, измеренная на высоте 2 м над землей.
Te - Эффективная температура - температура, которую ощущает одетый по сезону человек в тени. Характеристика душности погоды. При расчете учитывается влияние влажности воздуха и скорости ветра на теплоощущения человека.
Tes - Эффективная температура на солнце - температура, которую ощущает человек, с поправкой на солнечный нагрев. Характеристика знойности погоды. Зависит от высоты солнца над горизонтом, облачности и скорости ветра. Ночью, в пасмурную погоду, а также при ветре 12 м/с и более поправка равна нулю.
P - Атмосферное давление - приведенное к уровню моря атмосферное давление.
Po - Атмосферное давление - измеренное на уровне метеостанции атмосферное давление.
Tmin - Минимальная температура - минимум температуры воздуха на высоте 2 м над землей.
Tmax - Максимальная температура - максимум температуры воздуха на высоте 2 м над землей.
R - Количество осадков - Количество выпавших осадков за период времени, мм. При наведении курсора мыши на число - период времени, за который выпало указанное количество осадков.
R24 - Количество осадков - Количество выпавших осадков за 24 часа, мм.
S - Снежный покров - Высота снежного покрова, см. При наведении курсора мыши на число - состояние снежного покрова и степень покрытия местности в баллах.